Regional Weather Roundup
Issued by NWS

Home | Current Version | Previous Version | Graphics & Text | Print | Product List | Glossary On
Versions: 1 2 3 4 5 6 7 8 9 10 11 12 13 14 15 16 17 18 19 20 21 22 23 24 25 26 27
000
ASUS45 KCYS 191410
RWRWY

WYOMING REGIONAL WEATHER ROUNDUP
NATIONAL WEATHER SERVICE CHEYENNE WY
700 AM MST THU JAN 19 2017

NOTE:  "FAIR" INDICATES FEW OR NO CLOUDS BELOW 12,000 FEET
WITH NO SIGNIFICANT WEATHER AND/OR OBSTRUCTIONS TO VISIBILITY.

WYZ001-191500-
YELLOWSTONE NATIONAL PARK

CITY           SKY/WX    TMP DP  RH WIND       PRES   REMARKS
LK YELLOWSTONE   N/A     18  17  96 CALM      29.68F
W YELLOWSTONE  NOT AVBL

$$
WYZ002>013-054>058-071-098>099-191500-
NORTHERN WYOMING

CITY           SKY/WX    TMP DP  RH WIND       PRES   REMARKS
JACKSON        CLOUDY    16  14  93 N8        29.70F WCI   5
CODY           FAIR      18  13  80 NE9       29.56F WCI   7
GREYBULL       FAIR       4   1  88 CALM      29.61S
WORLAND        FAIR       8   6  92 NE3       29.59S
SHERIDAN       FAIR      14  10  84 VRB5      29.51S WCI   6
BUFFALO        FAIR      41  16  36 NW8       29.50F
GILLETTE       FAIR      32  18  56 S6        29.52F WCI  26
HULETT         FAIR      32  18  55 SW12      29.53S WCI  23
NEWCASTLE      FAIR      23  14  68 NE6       29.57F WCI  16

$$
WYZ014>020-022>026-101>103-191500-
CENTRAL WYOMING

CITY           SKY/WX    TMP DP  RH WIND       PRES   REMARKS
BIG PINEY      FAIR      -5  -7  91 NE3       29.73F
PINEDALE       FAIR      -4  -8  84 SE5       29.75S WCI -15
DUBOIS         NOT AVBL
LANDER         FAIR       8   4  83 NE3       29.65S
RIVERTON       FAIR       2  -3  80 W5        29.66F WCI  -8
CASPER         FAIR      32  19  58 SW22G36   29.63R WCI  19
DOUGLAS        FAIR      29  18  63 NW8       29.58F WCI  21

$$
WYZ021-027>030-104>119-191500-
SOUTHERN WYOMING

CITY           SKY/WX    TMP DP  RH WIND       PRES   REMARKS
EVANSTON       CLOUDY    27  13  55 W3        29.71S
ROCK SPRINGS   FAIR       1  -1  91 CALM      29.75S
RAWLINS        FAIR      29  18  63 SW14G30   29.73S WCI  18
LARAMIE        FAIR      17  10  74 SW14      29.67F WCI   3
CHEYENNE       FAIR      34  13  41 NW8       29.60S WCI  27
TORRINGTON     FAIR      24  16  71 SE5       29.57S WCI  18

$$




USA.gov is the U.S. government's official web portal to all federal, state and local government web resources and services.